This demonstration page uses our WeatherBlox Daily Observations layout. Learn more.

Left ArrowRight Arrow

Hourly Observations for February 24, 2015

Temp ( °F °C ) Dew Point ( °F °C ) Humidity (%) Winds ( mph kmh ) Pressure ( in mb ) Visibility ( mi km ) Precip ( " mm )
12:51 am 00:51 Clear 51 10.6 29 -1.7 43 43 ESE 10 17 29.90 1013 10 16 0.00 0.00
1:51 am 01:51 Clear 47 8.3 30 -1.1 52 52 SSE 9 15 29.91 1013 10 16 0.00 0.00
2:51 am 02:51 Partly Cloudy 45 7.2 29 -1.7 54 54 SSE 9 15 29.90 1012 10 16 0.00 0.00
3:51 am 03:51 Mostly Cloudy 45 7.2 29 -1.7 54 54 SSE 12 19 29.90 1013 10 16 0.00 0.00
4:51 am 04:51 Cloudy 44 6.7 28 -2.2 53 53 SSE 10 17 29.92 1013 10 16 0.00 0.00
5:51 am 05:51 Mostly Clear 43 6.1 28 -2.2 56 56 SSE 13 20 29.93 1014 10 16 0.00 0.00
6:51 am 06:51 Partly Cloudy 42 5.6 27 -2.8 55 55 SSE 12 19 29.93 1014 10 16 0.00 0.00
7:51 am 07:51 Cloudy 44 6.7 27 -2.8 51 51 SSE 12 19 29.94 1014 10 16 0.00 0.00
8:51 am 08:51 Cloudy 47 8.3 28 -2.2 48 48 N 3 6 29.94 1014 10 16 0.00 0.00
9:51 am 09:51 Cloudy with Light Rain 47 8.3 32 0 56 56 W 6 9 29.95 1014 10 16 0.00 0.03
10:51 am 10:51 Cloudy with Rain 44 6.7 37 2.8 76 76 WNW 5 7 29.96 1015 3 5 0.02 0.51
11:17 am 11:17 Cloudy with Light Rain 44 6.7 38 3.3 79 79 W 6 9 30.03 1017 5 8 0.04 1.02
11:43 am 11:43 Cloudy with Light Rain 45 7.2 40 4.4 83 83 WNW 12 19 30.00 1016 10 16 0.04 1.02
11:51 am 11:51 Cloudy 45 7.2 40 4.4 83 83 WNW 14 22 29.96 1014 10 16 0.04 1.02
12:32 pm 12:32 Cloudy with Rain 42 5.6 38 3.3 85 85 NW 24 39 30.03 1017 3 5 0.03 0.76
12:51 pm 12:51 Cloudy with Light Rain 43 6.1 38 3.3 82 82 NW 16 26 29.95 1014 10 16 0.04 1.02
1:51 pm 13:51 Cloudy 46 7.8 37 2.8 71 71 NW 10 17 29.95 1014 10 16 0.00 0.03
2:51 pm 14:51 Mostly Sunny 50 10 36 2.2 59 59 NNW 13 20 29.93 1013 10 16 0.00 0.00
3:51 pm 15:51 Mostly Cloudy with Light Rain 49 9.4 33 0.6 55 55 WNW 17 28 29.93 1014 10 16 0.00 0.03
4:33 pm 16:33 Cloudy with Rain 42 5.6 38 3.3 85 85 WNW 21 33 30.03 1017 3 4 0.02 0.51
4:41 pm 16:41 Cloudy with Rain 43 6.1 38 3.3 82 82 NW 15 24 30.03 1017 4 6 0.04 1.02
4:51 pm 16:51 Cloudy with Light Rain 43 6.1 38 3.3 82 82 WNW 13 20 29.98 1015 9 14 0.05 1.27
5:51 pm 17:51 Sunny 43 6.1 38 3.3 82 82 WNW 14 22 30.02 1017 10 16 0.01 0.25
6:51 pm 18:51 Clear 42 5.6 38 3.3 85 85 NW 14 22 30.04 1017 10 16 0.00 0.00
7:51 pm 19:51 Clear 42 5.6 37 2.8 82 82 N 9 15 30.06 1018 10 16 0.00 0.00
8:51 pm 20:51 Clear 41 5 37 2.8 86 86 NW 12 19 30.06 1018 10 16 0.00 0.00
9:51 pm 21:51 Clear 40 4.4 36 2.2 86 86 NNW 12 19 30.08 1019 10 16 0.00 0.00
10:51 pm 22:51 Clear 40 4.4 36 2.2 86 86 NW 10 17 30.10 1019 10 16 0.00 0.00
11:51 pm 23:51 Clear 38 3.3 36 2.2 93 93 N 3 6 30.11 1020 10 16 0.00 0.00

Powered by AerisWeather